Location: ??????
(55.7522°N, 37.6156°E)
Time: 17:43:10
(UTC+00:00)

Cosmos 1869 Rocket - Pass Details

Date: 14 June 2025
Orbit: 598 x 627 km, 82.5° (Epoch: 12 July)

Event Time Altitude Azimuth Distance (km) Brightness Sun altitude
Rises 20:00:33 0° 344° (NNW) 2,911 9.4 -8.7°
Reaches altitude 10° 20:02:51 10° 338° (NNW) 1,996 7.9 -8.8°
Maximum altitude 20:07:04 46° 266° (W) 835 4.4 -9.0°
Drops below altitude 10° 20:11:13 10° 194° (SSW) 1,963 5.6 -9.2°
Enters shadow 20:11:34 - 192° (SSW) 2,094 5.8 -9.2°
